Zurück zum Katalog

STARLINK-32048

AktivKommunikationVLEO
NORAD 60156·PAYLOAD·🇺🇸 United States

Gestartet Jun 27, 2024 von Cape Canaveral Space Force Station

Loading…

Nächste Überflüge (nächste 24 Stunden)

TLE

AktuellSource: CelesTrak SupGP

Epoche: Sep 14, 2026, 15:09 UTC

1 60156C 24120X   26257.63173611  .00062968  00000+0  18622-2 0  2575
2 60156  53.1577 159.0295 0001344  99.4103 138.8341 15.34327773    18

Verfolge STARLINK-32048 in Echtzeit mit AllMySat

Download on the App Store